Regional Weather Roundup
Issued by NWS

Home | Current Version | Previous Version | Text Only | Print | Product List | Glossary On
Versions: 1 2 3 4 5 6 7 8 9 10 11 12 13 14 15 16 17 18 19 20 21 22 23 24 25 26 27 28 29 30 31 32 33 34 35 36 37 38 39 40 41 42 43 44 45 46 47 48 49 50
000
ASUS42 KFFC 291810
RWRGA
WEATHER ROUNDUP FOR GEORGIA
NATIONAL WEATHER SERVICE PEACHTREE CITY GA
200 PM EDT WED MAR 29 2017

NOTE: "FAIR" INDICATES FEW OR NO CLOUDS BELOW 12,000 FEET WITH NO
SIGNIFICANT WEATHER AND/OR OBSTRUCTIONS TO VISIBILITY.

* = USE WITH CAUTION. THE STATIONS MARKED WITH AN ASTERISK MAY NOT
REPORT WEATHER SUCH AS PRECIPITATION, FOG, OR THUNDER AND ARE NOT
QUALITY CONTROLLED BY NWS.

THE REMARK "TC" DENOTES TEMPERATURE READING IN DEGREES CELSIUS.

GAZ001>058-291900-
NORTH GEORGIA

CITY           SKY/WX    TMP DP  RH WIND       PRES   REMARKS
ATLANTA        MOSUNNY   79  56  45 E7        30.04F
6HR MIN TEMP:  62; 6HR MAX TEMP:  79;

ATHENS         MOSUNNY   80  55  42 CALM      30.05F
6HR MIN TEMP:  53; 6HR MAX TEMP:  80;

CHAMBLEE       SUNNY     78  54  43 CALM      30.04F
6HR MIN TEMP:  55; 6HR MAX TEMP:  78;

PEACHTREE CITY PTSUNNY   81  58  45 MISG      30.03F
6HR MIN TEMP:  53; 6HR MAX TEMP:  81;

ROME           MOSUNNY   79  56  45 NW7       30.04S
6HR MIN TEMP:  52; 6HR MAX TEMP:  79;

WEST ATLANTA   SUNNY     80  55  42 CALM      30.03F
6HR MIN TEMP:  54; 6HR MAX TEMP:  80;

GAINESVILLE    MOSUNNY   75  53  46 NE5       30.07F
6HR MIN TEMP:  54; 6HR MAX TEMP:  75;

CARTERSVILLE   CLOUDY    78  57  48 VRB3      30.04F
6HR MIN TEMP:  51; 6HR MAX TEMP:  80;



CITY           SKY/WX    TMP DP  RH WIND       PRES   REMARKS
DALTON*        SUNNY     75  55  50 CALM      30.05S
LAWRENCEVILLE* MOSUNNY   77  55  47 SE9       30.05F
MARIETTA       MOSUNNY   78  55  45 SW6       30.04F
KENNESAW*      SUNNY     79  57  47 S5        30.01F
CANTON*        SUNNY     77  45  31 CALM      30.06F
$$

GAZ059>098-102>109-291900-
CENTRAL GEORGIA

CITY           SKY/WX    TMP DP  RH WIND       PRES   REMARKS
AUGUSTA-BUSH   SUNNY     83  52  34 CALM      30.02F
6HR MIN TEMP:  55; 6HR MAX TEMP:  83;

AUGUSTA-DANIEL SUNNY     82  48  30 NE6       30.04F
6HR MIN TEMP:  65; 6HR MAX TEMP:  82;

COLUMBUS       SUNNY     83  61  47 SW9       30.01F
6HR MIN TEMP:  63; 6HR MAX TEMP:  83;

MACON          SUNNY     83  57  41 VRB3      30.01F
6HR MIN TEMP:  56; 6HR MAX TEMP:  83;

ROBINS AFB     SUNNY     83  59  43 N5        30.01F


CITY           SKY/WX    TMP DP  RH WIND       PRES   REMARKS
LAGRANGE*      PTSUNNY   82  66  58 S8        30.02F
SYLVANIA*      SUNNY    N/A N/A N/A NE5       30.03F
MILLEDGEVILLE* SUNNY     81  59  47 CALM      30.03F
$$

GAZ099>101-110>166-291900-
SOUTH GEORGIA

CITY           SKY/WX    TMP DP  RH WIND       PRES   REMARKS
SAVANNAH       PTSUNNY   82  55  39 VRB3      30.01F
6HR MIN TEMP:  62; 6HR MAX TEMP:  84;

VALDOSTA       MOSUNNY   84  62  47 VRB5      30.02F
6HR MIN TEMP:  62; 6HR MAX TEMP:  84;

ALMA           MOSUNNY   85  61  44 CALM      30.00F
6HR MIN TEMP:  61; 6HR MAX TEMP:  86;

ST SIMONS      MOSUNNY   77  62  59 E9        30.02F
6HR MIN TEMP:  66; 6HR MAX TEMP:  82;

FT STEWART     MOSUNNY   84  58  40 S5        29.98F
ALBANY         PTSUNNY   84  63  49 CALM      30.03F
HUNTER AFB     MOSUNNY   81  60  49 E8        30.00F
MOODY AFB      PTSUNNY   85  60  42 SW7       30.01F
BRUNSWICK      CLOUDY    81  68  65 E7        30.02F


CITY           SKY/WX    TMP DP  RH WIND       PRES   REMARKS
BAINBRIDGE*    SUNNY     81  59  47 W5        30.03F
MOULTRIE*      PTSUNNY   82  59  44 CALM      30.03F
VIDALIA*       SUNNY     84  55  37 CALM      30.02F
WAYCROSS*      PTSUNNY   89  66  46 W5        30.00F HX  91
DOUGLAS*       PTSUNNY   82  57  42 N3        30.02F
$$



USA.gov is the U.S. government's official web portal to all federal, state and local government web resources and services.